Simultaneous Nadir Overpasses (SNOs) Predictions

Prediction of SNOs between GOES-17 and METOP-A Satellite Orbit:

Table of predicted SNOs for the next 14.0 days since TLE Epoch: 10/25/2019
Index Date Time (GOES-17) GOES-17 Lat,Lon METOP-A Lat,Lon Distance(km) Time Diff (sec)
1 10/26/2019 06:10:31 0.00,-137.20 -0.15,-137.94 84.25 80
2 10/27/2019 05:49:51 0.00,-137.20 0.93,-132.96 482.94 80
3 10/28/2019 18:06:04 -0.00,-137.20 0.05,-137.55 40.41 80
4 10/31/2019 06:04:26 0.01,-137.17 0.01,-137.20 2.62 80
5 11/02/2019 18:02:40 -0.01,-137.15 -0.11,-136.81 39.64 80
6 11/04/2019 06:24:20 -0.00,-137.13 -0.96,-141.42 489.72 80
7 11/05/2019 06:01:01 -0.01,-137.11 0.12,-136.44 76.42 80
8 11/06/2019 18:22:34 0.01,-137.09 0.85,-141.04 448.41 80
9 11/07/2019 17:59:15 0.01,-137.08 -0.22,-136.05 117.39 80




NCC Satellite Simultaneous Nadir Overpasses (SNOs) Prediction Service
